Regional Weather Roundup
Issued by NWS

Home | Current Version | Previous Version | Graphics & Text | Print | Product List | Glossary On
Versions: 1 2 3 4 5 6 7 8 9 10 11 12 13 14 15 16 17 18 19 20 21 22 23 24 25 26 27 28 29 30 31 32 33 34 35 36 37 38 39 40 41 42 43 44 45 46 47 48 49 50
107
ASUS43 KLSX 302257
RWRMO

WEATHER SUMMARY FOR MISSOURI
NATIONAL WEATHER SERVICE SPRINGFIELD MO
600 PM CDT FRI SEP 30 2016

NOTE: "FAIR" INDICATES FEW OR NO CLOUDS BELOW 12,000 FEET WITH NO
       SIGNIFICANT WEATHER AND/OR OBSTRUCTIONS TO VISIBILITY.
       CURRENT SKY AND/OR WEATHER CONDITIONS ARE NOT AVAILABLE FOR
       CHILLICOTHE AND FARMINGTON.

MOZ001>031-035>038-043-044-053-054-010000-
...NORTHERN AND WESTERN MISSOURI...

CITY           SKY/WX    TMP DP  RH WIND       PRES   REMARKS
KANSAS CTY INT MOSUNNY   70  51  51 NE10      30.13S
LEE`S SUMMIT   SUNNY     71  49  45 N10       30.13R
ST JOSEPH      SUNNY     72  50  45 NE8       30.13S
CHILLICOTHE      N/A     66  54  65 N8        30.15R

$$
MOZ066>068-077>081-088>096-101>105-010000-
...SOUTHWEST MISSOURI...

CITY           SKY/WX    TMP DP  RH WIND       PRES   REMARKS
SPRINGFIELD    CLOUDY    70  53  54 NW6       30.11S
JOPLIN         SUNNY     73  54  51 N6        30.12S
BRANSON        PTSUNNY   70  52  52 NW7       30.12R

$$
MOZ032>034-039>042-045>050-055>058-069>072-010000-
...CENTRAL MISSOURI...

CITY           SKY/WX    TMP DP  RH WIND       PRES   REMARKS
COLUMBIA       NOT AVBL
JEFFERSON CITY CLOUDY    66  56  70 N6        30.09S
SEDALIA        SUNNY     69  54  58 NE8       30.12R

$$
MOZ051-052-059>065-010000-
...EAST CENTRAL MISSOURI...

CITY           SKY/WX    TMP DP  RH WIND       PRES   REMARKS
ST LOUIS INTL  MOCLDY    66  59  78 NW10      30.05S

$$
MOZ072>076-082>087-097>100-106>115-010000-
...SOUTH CENTRAL AND SOUTHEAST MISSOURI...

CITY           SKY/WX    TMP DP  RH WIND       PRES   REMARKS
CAPE GIRARDEAU MOCLDY    66  58  75 W7        30.02S
POPLAR BLUFF   CLOUDY    67  59  75 NW6       30.05S
WEST PLAINS    CLOUDY    67  53  61 N8        30.11S

$$



USA.gov is the U.S. government's official web portal to all federal, state and local government web resources and services.